Home > Weather > Kaiserslautern > Past weeks

Flag for Germany Past Weather in Kaiserslautern, Rhineland-Palatinate, Germany — Yesterday and Last 2 Weeks

Now
72 °F

Broken clouds.


Feels Like: 72 °F
Forecast: 60 / 78 °F
Wind: 1 mph from Northeast

Location: Ramstein

Current Time: Jul 23, 2016 at 11:27:31 AM

Latest Report: Jul 23, 2016 at 10:58 AM


Visibility: N/A

Pressure: 30.05 "Hg

Humidity: 78%

Dew Point: 64 °F

Location of KaiserslauternLocation

Past Weather in Kaiserslautern — Graph

°F

Kaiserslautern Temperature Yesterday

Maximum temperature yesterday: 82 °F (at 2:58 PM)
Minimum temperature yesterday: 63 °F (at 4:58 AM)
Average temperature yesterday: 71 °F

High & Low Weather Summary for the Past Weeks

 TemperatureHumidityPressure
High93 °F (Jul 20, 3:58 PM)100% (Jul 9, 11:58 PM)30.33 "Hg (Jul 9, 11:58 PM)
Low43 °F (Jul 16, 4:59 AM)30% (Jul 20, 3:58 PM)29.81 "Hg (Jul 10, 8:58 PM)
Average68 °F72%30.06 "Hg
* Reported Jul 8 9:58 AM — Jul 23 9:58 AM, Kaiserslautern, Weather by CustomWeather, © 2016

Note: Actual official high and low records may vary slightly from our data, if they occured in-between our weather recording intervals... More about our weather records

Advertising

Kaiserslautern Weather History for the Previous 24 Hours

Scroll right to see more
 ConditionsComfort  
Time TempWeatherWind HumidityBarometerVisibility
9:58 AM
Sat, Jul 23
69 °FBroken clouds.No wind87%30.04 "HgN/A
8:58 AM66 °FRain. Partly sunny.No wind100%30.03 "HgN/A
8:04 AM64 °FBroken clouds.No wind100%30.04 "HgN/A
7:58 AM64 °FBroken clouds.No wind100%30.02 "HgN/A
6:59 AM64 °FLow clouds.No wind100%30.01 "HgN/A
5:58 AM64 °FOvercast.No wind100%30.00 "HgN/A
4:58 AM64 °FPassing clouds.No wind100%30.00 "Hg5 mi
3:58 AM63 °FPassing clouds.No wind100%30.01 "Hg4 mi
2:58 AM64 °FLight rain. Passing clouds.No wind100%30.01 "HgN/A
1:58 AM64 °FPassing clouds.1 mph100%30.00 "HgN/A
12:58 AM64 °FPassing clouds.No wind100%30.01 "HgN/A
11:58 PM
Fri, Jul 22
64 °FPassing clouds.1 mph100%30.00 "HgN/A
10:58 PM64 °FLight rain. Overcast.No wind100%30.02 "HgN/A
10:01 PM64 °FThundershowers. Low clouds.No wind100%30.05 "HgN/A
9:58 PM66 °FThunderstorms. Fog.No wind94%30.03 "Hg6 mi
8:58 PM70 °FDrizzle. Overcast.7 mph78%29.98 "HgN/A
7:58 PM72 °FOvercast.8 mph73%29.98 "HgN/A
6:58 PM75 °FPartly sunny.13 mph68%29.95 "HgN/A
5:58 PM80 °FPartly sunny.1 mph58%29.93 "HgN/A
4:58 PM81 °FPartly sunny.3 mph58%29.94 "HgN/A
3:58 PM82 °FOvercast.6 mph55%29.93 "HgN/A
2:58 PM82 °FPartly sunny.6 mph55%29.94 "HgN/A
1:58 PM82 °FScattered clouds.5 mph53%29.95 "HgN/A
12:58 PM81 °FPassing clouds.6 mph54%29.95 "HgN/A
11:58 AM79 °FPassing clouds.5 mph61%29.97 "HgN/A
Weather by CustomWeather, © 2016

See weather overviewHow to use our weather pages